DateTimeUTC,F1_A11,F1_S11,BsB_S11,BsG_S11,BsR_S11,BbsB_S11,BbsG_S11,BbsR_S11,BaB_A11,BaG_A11,BaR_A11,Tu_S11,T_S11,Uu_S11,U_S11,P_S11,T1_A11
2021-04-29T00:00:00Z,00040200,21000000,,,,,,,0000.35,0000.12,-000.11,17.8,25.0,00.9,00.6,0681.5,31.1
2021-04-29T00:01:00Z,00040200,21000000,,,,,,,-000.74,-000.39,-000.19,17.8,25.0,00.9,00.6,0681.5,31.1
2021-04-29T00:02:00Z,00040200,21000000,,,,,,,-000.06,-000.34,-000.36,17.8,25.0,00.9,00.6,0681.5,31.1
2021-04-29T00:03:00Z,00040200,61000000,,,,,,,-000.11,0000.18,0000.07,17.8,25.0,00.9,00.6,0681.5,31.1
2021-04-29T00:04:00Z,00040200,41000000,0001.31,0000.67,0000.62,-000.32,0000.12,0000.15,0000.69,0000.16,0000.54,17.9,24.8,00.8,00.5,0682.5,31.1
2021-04-29T00:05:00Z,00040200,01000000,0001.17,0000.87,0000.47,0000.41,0000.28,0000.21,0000.24,0000.10,0000.04,17.9,24.8,00.8,00.6,0682.6,31.1
2021-04-29T00:06:00Z,00040200,01000000,0001.21,0000.90,0000.40,-000.29,0000.17,0000.07,0000.13,0000.64,0000.03,17.9,24.7,00.8,00.5,0682.6,31.1
2021-04-29T00:07:00Z,00040200,01000000,0000.75,0000.73,0000.25,-000.06,0000.36,0000.22,0000.57,0000.41,0000.28,17.9,24.7,00.7,00.5,0682.6,31.1
2021-04-29T00:08:00Z,00040200,01000000,0001.29,0000.57,0000.47,-000.11,0000.18,0000.03,0000.09,0000.10,0000.03,17.9,24.7,00.7,00.5,0682.6,31.1
2021-04-29T00:09:00Z,00040200,01000000,0001.11,0000.79,0000.27,0000.48,0000.23,0000.00,0000.30,-000.02,0000.02,17.9,24.7,00.7,00.5,0682.6,31.1
2021-04-29T00:10:00Z,00040200,01000000,0001.63,0000.93,0000.46,0000.01,0000.18,0000.01,-000.01,0000.46,0000.49,17.9,24.7,00.6,00.4,0682.6,31.1
2021-04-29T00:11:00Z,00040200,01000000,0000.86,0000.78,0000.32,-000.00,0000.35,0000.35,0000.21,-000.11,-000.04,17.9,24.7,00.5,00.4,0682.6,31.1
2021-04-29T00:12:00Z,00040200,01000000,0000.94,0001.17,0000.56,0000.14,0000.21,0000.13,0000.31,0000.39,0000.20,17.9,24.6,00.4,00.3,0682.7,31.1
2021-04-29T00:13:00Z,00040200,01000000,0000.84,0000.52,0000.63,-000.08,-000.07,0000.29,0000.24,0000.35,-000.15,17.9,24.6,00.5,00.3,0682.7,31.1
2021-04-29T00:14:00Z,00040200,01000000,0001.11,0000.92,0000.51,0000.46,0000.34,0000.20,0000.63,0000.20,0000.48,17.9,24.6,00.3,00.2,0682.7,31.1
2021-04-29T00:15:00Z,00040200,01000000,0000.63,0000.83,0000.55,-000.13,0000.38,0000.18,0000.23,0000.02,0000.05,17.9,24.6,00.4,00.2,0682.6,31.1
2021-04-29T00:16:00Z,00040200,01000000,0001.17,0000.91,0000.53,0000.07,0000.09,0000.46,-000.12,0000.13,-000.04,17.8,24.6,00.3,00.2,0682.6,31.1
2021-04-29T00:17:00Z,00040200,01000000,0001.62,0000.80,0000.42,0000.00,0000.24,0000.09,0000.49,0000.54,0000.15,17.8,24.6,00.3,00.2,0682.7,31.1
2021-04-29T00:18:00Z,00040200,01000000,0002.15,0001.10,0000.29,0000.00,0000.43,0000.18,0000.29,-000.00,0000.44,17.8,24.6,00.2,00.2,0682.6,31.1
2021-04-29T00:19:00Z,00040200,01000000,0001.37,0000.57,0000.70,0000.16,0000.35,0000.20,0000.57,0000.57,0000.42,17.8,24.6,00.2,00.1,0682.6,31.1
2021-04-29T00:20:00Z,00040200,01000000,0001.66,0001.18,0000.49,0000.15,0000.21,0000.25,0000.15,0000.16,0000.07,17.8,24.5,00.3,00.2,0682.6,31.1
2021-04-29T00:21:00Z,00040200,01000000,0001.01,0000.71,0000.59,0000.21,0000.18,0000.23,0000.48,0000.58,0000.23,17.8,24.6,00.2,00.2,0682.6,31.1
2021-04-29T00:22:00Z,00040200,01000000,0001.38,0000.95,0000.31,0000.02,0000.40,-000.17,0000.16,0000.15,0000.12,17.9,24.6,00.2,00.1,0682.6,31.1
2021-04-29T00:23:00Z,00040200,01000000,0001.13,0000.87,0000.54,0000.38,0000.38,0000.15,0000.07,-000.06,0000.04,17.9,24.6,00.1,00.1,0682.6,31.1
2021-04-29T00:24:00Z,00040200,01000000,0001.37,0000.92,0000.51,-000.34,0000.19,0000.16,0000.50,0000.73,0000.53,17.9,24.6,00.1,00.1,0682.6,31.1
2021-04-29T00:25:00Z,00040200,01000000,0001.09,0000.90,0000.85,-000.27,0000.43,0000.39,0000.40,0000.12,-000.27,18.0,24.6,00.1,00.1,0682.6,31.1
2021-04-29T00:26:00Z,00040200,01000000,0001.22,0001.01,0000.74,0000.03,0000.31,0000.06,0000.14,0000.28,0000.46,18.0,24.6,00.1,00.1,0682.6,31.1
2021-04-29T00:27:00Z,00040200,01000000,0001.53,0001.16,0000.80,0000.17,0000.25,0000.37,0000.70,0000.64,0000.34,18.0,24.6,00.1,00.1,0682.6,31.1
2021-04-29T00:28:00Z,00040200,01000000,0001.33,0000.61,0000.45,-000.11,0000.16,0000.10,0000.01,-000.32,0000.17,18.0,24.6,00.0,00.0,0682.6,31.1
2021-04-29T00:29:00Z,00040200,01000000,0001.69,0001.01,0000.52,-000.23,0000.23,0000.23,0000.95,0000.80,0000.68,17.9,24.6,00.1,00.1,0682.6,31.1
2021-04-29T00:30:00Z,00040200,01000000,0001.59,0000.88,0000.67,0000.40,0000.41,0000.26,0000.01,0000.04,-000.32,17.9,24.6,00.1,00.0,0682.6,31.1
2021-04-29T00:31:00Z,00040200,01000000,0001.76,0000.77,0000.64,-000.18,0000.29,0000.36,0000.61,0000.80,0000.70,17.9,24.6,00.1,00.0,0682.6,31.1
2021-04-29T00:32:00Z,00040200,01000000,0001.40,0000.79,0000.32,-000.09,0000.23,0000.08,0000.43,0000.04,0000.56,17.9,24.6,00.1,00.0,0682.6,31.1
2021-04-29T00:33:00Z,00040200,01000000,0001.29,0000.81,0000.64,-000.52,0000.20,0000.22,0000.61,0000.70,0000.11,17.9,24.6,00.1,00.0,0682.6,31.1
2021-04-29T00:34:00Z,00040200,01000000,0001.26,0001.26,0000.23,0000.32,0000.33,0000.18,0000.59,0000.77,0000.09,17.9,24.6,00.0,00.0,0682.6,31.1
2021-04-29T00:35:00Z,00040200,01000000,0001.17,0000.75,0000.66,0000.27,0000.22,0000.63,0000.36,0000.15,0000.58,17.9,24.6,00.1,00.0,0682.6,31.1
2021-04-29T00:36:00Z,00040200,01000000,0001.76,0000.81,0000.31,0000.06,0000.02,-000.07,0000.89,0000.28,0000.28,17.9,24.6,00.0,00.0,0682.6,31.1
2021-04-29T00:37:00Z,00040200,01000000,0000.90,0000.92,0000.70,0000.52,-000.08,0000.55,0000.11,0000.74,0000.45,17.9,24.6,00.0,00.0,0682.6,31.1
2021-04-29T00:38:00Z,00040200,01000000,0001.51,0000.94,0000.74,-000.24,0000.55,0000.41,0000.26,-000.07,-000.23,17.9,24.6,00.0,00.0,0682.6,31.1
2021-04-29T00:39:00Z,00040200,01000000,0001.35,0000.78,0000.47,-000.06,0000.40,0000.30,0000.50,0000.84,0000.39,17.9,24.6,00.0,00.0,0682.5,31.1
2021-04-29T00:40:00Z,00040200,01000000,0000.80,0000.65,0000.51,-000.17,0000.12,0000.38,0000.43,0000.47,0000.39,17.9,24.6,00.1,00.0,0682.5,31.1
2021-04-29T00:41:00Z,00040200,01000000,0001.82,0001.10,0000.58,0000.23,0000.46,0000.33,0000.68,0000.34,0000.35,17.9,24.6,00.0,00.0,0682.5,31.1
2021-04-29T00:42:00Z,00040200,01000000,0001.28,0001.02,0000.56,0000.05,0000.02,0000.13,0000.42,0000.54,0000.45,17.9,24.6,00.0,00.0,0682.5,31.1
2021-04-29T00:43:00Z,00040200,01000000,0001.47,0000.88,0000.30,0000.06,0000.25,0000.04,0000.82,0000.45,0000.44,17.9,24.6,00.0,00.0,0682.5,31.1
2021-04-29T00:44:00Z,00040200,01000000,0001.28,0000.85,0000.44,0000.16,0000.18,0000.20,0000.52,0000.67,0000.60,17.8,24.6,00.0,00.0,0682.5,31.1
2021-04-29T00:45:00Z,00040200,01000000,0001.56,0000.74,0000.48,0000.31,0000.38,0000.33,0000.31,0000.37,0000.28,17.8,24.5,00.0,00.0,0682.5,31.1
2021-04-29T00:46:00Z,00040200,01000000,0001.36,0001.17,0000.50,0000.16,0000.35,-000.08,0000.55,0000.44,0000.10,17.8,24.5,00.1,00.0,0682.5,31.1
2021-04-29T00:47:00Z,00040200,01000000,0001.50,0001.02,0000.31,-000.51,0000.51,0000.19,0000.47,0000.69,0000.29,17.8,24.5,00.0,00.0,0682.4,31.1
2021-04-29T00:48:00Z,00040200,01000000,0001.38,0000.77,0000.59,0000.04,0000.19,0000.48,0000.61,-000.19,0000.28,17.8,24.5,00.0,00.0,0682.4,31.1
2021-04-29T00:49:00Z,00040200,01000000,0001.38,0000.85,0000.44,-000.11,0000.51,0000.28,0000.39,0000.80,0000.28,17.8,24.5,00.0,00.0,0682.4,31.1
2021-04-29T00:50:00Z,00040200,01000000,0001.52,0001.02,0000.45,0000.35,0000.15,0000.34,0000.84,0000.61,0000.73,17.8,24.5,00.0,00.0,0682.4,31.1
2021-04-29T00:51:00Z,00040200,01000000,0001.58,0000.56,0000.57,0000.08,0000.53,0000.54,0000.44,0000.05,0000.27,17.8,24.5,00.0,00.0,0682.4,31.1
2021-04-29T00:52:00Z,00040200,01000000,0001.36,0001.12,0001.02,0000.10,0000.22,0000.38,0000.23,0000.78,0000.27,17.8,24.5,00.0,00.0,0682.4,31.1
2021-04-29T00:53:00Z,00040200,01000000,0001.97,0000.96,0000.52,0000.18,0000.16,0000.45,0000.86,0000.62,0000.63,17.8,24.5,00.0,00.0,0682.4,31.1
2021-04-29T00:54:00Z,00040200,01000000,0001.11,0000.92,0000.67,-000.19,0000.44,0000.33,0000.27,0000.42,0000.15,17.8,24.5,00.0,00.0,0682.4,31.1
2021-04-29T00:55:00Z,00040200,01000000,0001.05,0000.70,0000.52,-000.02,0000.36,0000.26,0000.80,0000.44,0000.46,17.8,24.5,00.1,00.0,0682.4,31.1
2021-04-29T00:56:00Z,00040200,01000000,0002.24,0000.71,0000.49,0000.45,0000.18,0000.37,0000.54,0000.76,0000.55,17.8,24.6,00.1,00.0,0682.4,31.1
2021-04-29T00:57:00Z,00040200,41000000,,,,,,,0001.58,0001.37,0000.93,17.9,24.6,,00.0,0682.3,31.1
2021-04-29T00:58:00Z,00040200,61000000,,,,,,,-000.55,-000.57,-000.44,17.6,24.7,,00.0,0681.4,31.1
2021-04-29T00:59:00Z,00040200,21000000,,,,,,,-000.40,-000.25,0000.15,17.6,24.8,,00.0,0681.4,31.1
